Showing default

ORBCOMM FM 104, 40090

Orbit data source: Space-Track

ORBCOMM FM 104, 40090 is a payload satellite owned by Orbcomm (US) in LEO that was launched on Mon, 14 Jul 2014 UTC via an FALCON 9 launch vehicle from the Air Force Eastern Test Range (AFETR). Payloads include a variety of satellites, spacecraft, and rockets equipped with specific instruments for various scientific and technological missions. These include communications satellites like Starlink; space stations such as the ISS; scientific satellites like the Hubble; Earth observation satellites from companies like Planet Labs, Umbra, and HawkEye 360; GPS; miniature CubeSats for education and research; and military/defense satellites.

Loading next visibility...
ORBCOMM FM 104 details
Identifier
40090, 2014-040E
Orbit
LEO
Last TLE update13 hours ago
Origin
Flag of USOrbcomm (US / ORB)
ManufacturerSNC Louisville
MissionNon-operational Commercial Communications
Bus & MotorSN-100A, Unknown motor
Mass172 kg wet, 158 kg dry
Launch date (UTC)
2014-07-14 (10 years ago)
Launch vehicle
FALCON 9
Launch site
Air Force Eastern Test Range (AFETR)
Object type
Payload
Rocket body
Debris
Shape & HBRBox + 1 Pan + 1 Ant, 13 m
Radar Cross Section2.222 m², Medium (>0.1 m² and < 1m²)

Expand to show TLE details & history

TLE from 13 hours ago
0 ORBCOMM FM 104
1 40090U 14040E   24361.12112328  .00002321  00000-0  55832-3 0  9992
2 40090  47.0029 145.9247 0016352 137.4591 222.7563 14.56113061555398
Epoch: 2024-12-26T02:54Z
Definitive object data (Epoch: 2024-12-26T02:54:25.051Z)
Latitude-0.00006°
Longitude7.2152°
Altitude714.481 km
Speed7.495 km/s
True Right ascension09h 43m 41s
True Declination0° 00' 00"
Sunlit
Object was in full shadow at TLE epoch
Visualization TLE readout
Latitude-38.32767°
Longitude-42.47028°
Altitude728.623 km
Speed7.485 km/s
Apparent Right ascension04h 54m 43s
Apparent Declination-41° 29' 40"
Sunlit
Object is in full shadow
Visualization observer readout
Local Sidereal Time15:11:03
Azimuth256.95° W
Elevation-70.363°
Doppler factor1
Orbital elements
Apogee altitude718.571 km
Perigee altitude695.4 km
Semi-major axis7,085.123 km
Eccentricity0.0016352
Inclination47.0029°
RAAN145.9247°
Arg. of periapsis137.4591°
True anomaly222.62928°
Mean anomaly222.7563°
Eccentric anomaly222.69277°
Mean motion3.63934 °/min
BSTAR0.00055832
Orbital period98.92 mins
Loading maneuver chart data...
Loading historical data...
Loading historical data...
Loading historical data...
Loading historical data...
Loading historical data...
Loading historical data...
Loading historical data...

ORBCOMM FM 104 Visibility forecast

Observer location: undefined°, undefined

Span
Click to sort rows by Start time (UTC) header in descending order
Start Az.
Max El. time (UTC)
Max El. Az.
Max El.
End time (UTC)
End Az.
8 mins2024-12-26 16:26:59.065Z301.99° NW2024-12-26 16:30:59.065Z14.4° NNE30.496°2024-12-26 16:34:59.065Z70.326° E
8 mins2024-12-26 18:10:59.065Z303.024° NW2024-12-26 18:14:59.065Z35.834° NE42.422°2024-12-26 18:18:59.065Z105.016° ESE
7 mins2024-12-26 19:54:59.065Z276.358° WNW2024-12-26 19:57:59.065Z228.206° WSW28.344°2024-12-26 20:01:59.065Z161.805° S
7 mins2024-12-27 12:00:59.065Z195.998° SSW2024-12-27 12:03:59.065Z145.902° SSE29.535°2024-12-27 12:07:59.065Z79.656° E
8 mins2024-12-27 13:43:59.065Z257.486° W2024-12-27 13:47:59.065Z357.364° N41.838°2024-12-27 13:51:59.065Z57.834° ENE
7 mins2024-12-27 15:28:59.065Z300.344° NW2024-12-27 15:31:59.065Z357.686° N30.772°2024-12-27 15:35:59.065Z61.13° ENE
|